Sarasota, FL

6:22 AM EST on December 10, 2019 (GMT -0500)
Sarasota-bradenton

Weather History for KSRQ - October, 2019

Change the Weather History Date:

Thursday, October 3, 2019

  Actual Average Record
Temperature  
Mean Temperature 84 °F 79 °F  
Max Temperature 93 °F 87 °F 95 °F (1959)
Min Temperature 73 °F 72 °F 58 °F (1984)
Degree Days  
Heating Degree Days 0 0  
Month to date heating degree days 0 0  
Since 1 July heating degree days 0 0  
Cooling Degree Days 18 14  
Month to date cooling degree days 58 44  
Year to date cooling degree days 3515 2833  
Growing Degree Days 34 (Base 50)    
Moisture  
Dew Point 69 °F    
Average Humidity 66    
Maximum Humidity 87    
Minimum Humidity 44    
Precipitation  
Precipitation 0.00 in 0.14 in 3.98 in (1943)
Month to date precipitation T 0.41  
Year to date precipitation 43.38 45.84  
Sea Level Pressure  
Sea Level Pressure 29.95 in    
Wind  
Wind Speed 7 mph ()    
Max Wind Speed 15 mph    
Max Gust Speed 19 mph    
Visibility 10.0 miles    
Events      
T = Trace of Precipitation, MM = Missing Value Source: Averaged Metar Reports

Daily Weather History Graph

Daily Weather History Graph

Search for Another Location

Airport or City:

Astronomy

Oct. 03, 2019 Rise Set
Actual Time 7:23 AM EDT 7:14 PM EDT
Civil Twilight 7:00 AM EDT 7:37 PM EDT
Nautical Twilight 6:33 AM EDT 8:04 PM EDT
Astronomical Twilight 6:06 AM EDT 8:31 PM EDT
Moon 12:28 PM EDT (10/3) 11:19 PM EDT (10/3)
Length of Visible Light 12h 37m
Length of Day
11h 50m
Waxing Crescent, 29% of the Moon is Illuminated
Oct 3
Waxing Crescent
Oct 5
First Quarter
Oct 13
Full
Oct 21
Last Quarter
Oct 27
New

Hourly Weather History & Observations

Time (EDT) Temp. Heat Index Dew Point Humidity Pressure Visibility Wind Dir Wind Speed Gust Speed Precip Events Conditions
12:53 AM 77.0 °F - 70.0 °F 79% 29.95 in 10.0 mi East 8.1 mph - N/A   Clear
1:53 AM 75.9 °F - 70.0 °F 82% 29.94 in 10.0 mi East 5.8 mph - N/A   Clear
2:53 AM 75.0 °F - 70.0 °F 84% 29.93 in 10.0 mi NE 5.8 mph - N/A   Clear
3:53 AM 75.0 °F - 70.0 °F 84% 29.92 in 10.0 mi ENE 5.8 mph - N/A   Clear
4:53 AM 73.9 °F - 70.0 °F 87% 29.92 in 10.0 mi ENE 5.8 mph - N/A   Clear
5:53 AM 73.9 °F - 70.0 °F 87% 29.94 in 10.0 mi East 5.8 mph - N/A   Clear
6:53 AM 73.9 °F - 70.0 °F 87% 29.95 in 10.0 mi East 5.8 mph - N/A   Clear
7:53 AM 75.0 °F - 70.0 °F 84% 29.96 in 10.0 mi ENE 6.9 mph - N/A   Clear
8:53 AM 78.1 °F - 72.0 °F 81% 29.98 in 10.0 mi East 6.9 mph - N/A   Clear
9:53 AM 82.9 °F 88.0 °F 72.0 °F 69% 29.99 in 10.0 mi ENE 10.4 mph - N/A   Clear
10:53 AM 86.0 °F 91.5 °F 71.1 °F 61% 29.99 in 10.0 mi ENE 10.4 mph - N/A   Partly Cloudy
11:53 AM 88.0 °F 92.9 °F 70.0 °F 55% 29.98 in 10.0 mi ESE 10.4 mph - N/A   Partly Cloudy
12:53 PM 88.0 °F 91.4 °F 68.0 °F 51% 29.97 in 10.0 mi East 10.4 mph - N/A   Scattered Clouds
1:53 PM 91.0 °F 94.3 °F 66.9 °F 45% 29.95 in 10.0 mi ENE 10.4 mph - N/A   Scattered Clouds
2:53 PM 90.0 °F 92.4 °F 66.0 °F 45% 29.93 in 10.0 mi ENE 12.7 mph - N/A   Mostly Cloudy
3:53 PM 90.0 °F 92.4 °F 66.0 °F 45% 29.92 in 10.0 mi East 5.8 mph - N/A   Scattered Clouds
4:53 PM 91.0 °F 94.3 °F 66.9 °F 45% 29.91 in 10.0 mi East 11.5 mph - N/A   Scattered Clouds
5:53 PM 91.0 °F 94.3 °F 66.9 °F 45% 29.91 in 10.0 mi East 11.5 mph - N/A   Clear
6:53 PM 88.0 °F 91.4 °F 68.0 °F 51% 29.91 in 10.0 mi East 8.1 mph - N/A   Scattered Clouds
7:53 PM 86.0 °F 89.4 °F 68.0 °F 55% 29.93 in 10.0 mi East 6.9 mph - N/A   Clear
8:53 PM 84.9 °F 88.2 °F 68.0 °F 57% 29.95 in 10.0 mi East 9.2 mph - N/A   Partly Cloudy
9:53 PM 82.9 °F 85.8 °F 68.0 °F 60% 29.97 in 10.0 mi East 10.4 mph - N/A   Partly Cloudy
10:53 PM 81.0 °F 83.8 °F 68.0 °F 65% 29.99 in 10.0 mi East 12.7 mph - N/A   Clear
11:53 PM 79.0 °F - 69.1 °F 72% 29.99 in 10.0 mi East 11.5 mph - N/A   Clear